"Period start","avg(HW err(1)/warn(2) (#))","avg(Visibility (m))","avg(Weather code (#))","avg(Precip intensity (mm/h))","min(HW err(1)/warn(2) (#))","max(HW err(1)/warn(2) (#))","std(HW err(1)/warn(2) (#))","med(HW err(1)/warn(2) (#))","min(Visibility (m))","max(Visibility (m))","std(Visibility (m))","med(Visibility (m))","min(Weather code (#))","max(Weather code (#))","std(Weather code (#))","med(Weather code (#))","min(Precip intensity (mm/h))","max(Precip intensity (mm/h))","std(Precip intensity (mm/h))","med(Precip intensity (mm/h))"
2014-11-01 00:00:00,2,49115,0,0.00,2,2,0,2,45280,50000,1590,50000,0,0,0,0,0.00,0.00,0.00,0.00
2014-11-01 00:10:00,2,49786,0,0.00,2,2,0,2,47969,50000,606,50000,0,0,0,0,0.00,0.00,0.00,0.00
2014-11-01 00:20:00,2,49755,0,0.00,2,2,0,2,47546,50000,736,50000,0,0,0,0,0.00,0.00,0.00,0.00
2014-11-01 00:30:00,2,49968,0,0.00,2,2,0,2,49679,50000,96,50000,0,0,0,0,0.00,0.00,0.00,0.00
2014-11-01 00:40:00,2,49995,0,0.00,2,2,0,2,49949,50000,15,50000,0,0,0,0,0.00,0.00,0.00,0.00
2014-11-01 00:50:00,2,47170,0,0.00,2,2,0,2,41167,50000,2823,47726,0,0,0,0,0.00,0.00,0.00,0.00
2014-11-01 01:00:00,2,43605,0,0.00,2,2,0,2,29091,50000,7985,47309,0,0,0,0,0.00,0.00,0.00,0.00
2014-11-01 01:10:00,2,45143,0,0.00,2,2,0,2,34700,50000,5553,47260,0,0,0,0,0.00,0.00,0.00,0.00
2014-11-01 01:20:00,2,49618,0,0.00,2,2,0,2,47682,50000,711,50000,0,0,0,0,0.00,0.00,0.00,0.00
2014-11-01 01:30:00,2,49545,0,0.00,2,2,0,2,47571,50000,740,50000,0,0,0,0,0.00,0.00,0.00,0.00
2014-11-01 01:40:00,2,43266,0,0.00,2,2,0,2,36656,47816,3582,43702,0,0,0,0,0.00,0.00,0.00,0.00
2014-11-01 01:50:00,2,43219,0,0.00,2,2,0,2,33300,50000,4874,44226,0,0,0,0,0.00,0.00,0.00,0.00
2014-11-01 02:00:00,2,27587,0,0.00,2,2,0,2,6104,40417,10732,28729,0,0,0,0,0.00,0.00,0.00,0.00
2014-11-01 02:10:00,2,16731,0,0.00,2,2,0,2,9746,31209,6254,13910,0,0,0,0,0.00,0.00,0.00,0.00
2014-11-01 02:20:00,2,26060,0,0.00,2,2,0,2,11768,38898,8658,26654,0,0,0,0,0.00,0.00,0.00,0.00
2014-11-01 02:30:00,2,35615,0,0.00,2,2,0,2,22176,46447,7249,34542,0,0,0,0,0.00,0.00,0.00,0.00
2014-11-01 02:40:00,2,34519,0,0.00,2,2,0,2,26640,43976,5912,32373,0,0,0,0,0.00,0.00,0.00,0.00
2014-11-01 02:50:00,2,48706,0,0.00,2,2,0,2,47410,50000,1083,48202,0,0,0,0,0.00,0.00,0.00,0.00
2014-11-01 03:00:00,2,48606,0,0.00,2,2,0,2,44951,50000,1816,50000,0,0,0,0,0.00,0.00,0.00,0.00
2014-11-01 03:10:00,2,48522,0,0.00,2,2,0,2,45377,50000,1847,49763,0,0,0,0,0.00,0.00,0.00,0.00
2014-11-01 03:20:00,2,49515,0,0.00,2,2,0,2,47560,50000,902,50000,0,0,0,0,0.00,0.00,0.00,0.00
2014-11-01 03:30:00,2,49948,0,0.00,2,2,0,2,49484,50000,155,50000,0,0,0,0,0.00,0.00,0.00,0.00
2014-11-01 03:40:00,2,48918,0,0.00,2,2,0,2,46696,50000,1378,49694,0,0,0,0,0.00,0.00,0.00,0.00
2014-11-01 03:50:00,2,50000,0,0.00,2,2,0,2,50000,50000,0,50000,0,0,0,0,0.00,0.00,0.00,0.00
2014-11-01 04:00:00,2,50000,0,0.00,2,2,0,2,50000,50000,0,50000,0,0,0,0,0.00,0.00,0.00,0.00
2014-11-01 04:10:00,2,49092,0,0.00,2,2,0,2,45253,50000,1704,50000,0,0,0,0,0.00,0.00,0.00,0.00
2014-11-01 04:20:00,2,50000,0,0.00,2,2,0,2,50000,50000,0,50000,0,0,0,0,0.00,0.00,0.00,0.00
2014-11-01 04:30:00,2,49895,0,0.00,2,2,0,2,49417,50000,211,50000,0,0,0,0,0.00,0.00,0.00,0.00
2014-11-01 04:40:00,2,49698,0,0.00,2,2,0,2,46984,50000,905,50000,0,0,0,0,0.00,0.00,0.00,0.00
2014-11-01 04:50:00,2,49879,0,0.00,2,2,0,2,48788,50000,364,50000,0,0,0,0,0.00,0.00,0.00,0.00
2014-11-01 05:00:00,2,50000,0,0.00,2,2,0,2,50000,50000,0,50000,0,0,0,0,0.00,0.00,0.00,0.00
2014-11-01 05:10:00,2,49647,0,0.00,2,2,0,2,47367,50000,772,50000,0,0,0,0,0.00,0.00,0.00,0.00
2014-11-01 05:20:00,2,49760,0,0.00,2,2,0,2,47782,50000,662,50000,0,0,0,0,0.00,0.00,0.00,0.00
2014-11-01 05:30:00,2,50000,0,0.00,2,2,0,2,50000,50000,0,50000,0,0,0,0,0.00,0.00,0.00,0.00
2014-11-01 05:40:00,2,50000,0,0.00,2,2,0,2,50000,50000,0,50000,0,0,0,0,0.00,0.00,0.00,0.00
2014-11-01 05:50:00,2,50000,0,0.00,2,2,0,2,50000,50000,0,50000,0,0,0,0,0.00,0.00,0.00,0.00
2014-11-01 06:00:00,2,50000,0,0.00,2,2,0,2,50000,50000,0,50000,0,0,0,0,0.00,0.00,0.00,0.00
2014-11-01 06:10:00,2,50000,0,0.00,2,2,0,2,50000,50000,0,50000,0,0,0,0,0.00,0.00,0.00,0.00
2014-11-01 06:20:00,2,49965,0,0.00,2,2,0,2,49654,50000,104,50000,0,0,0,0,0.00,0.00,0.00,0.00
2014-11-01 06:30:00,2,50000,0,0.00,2,2,0,2,50000,50000,0,50000,0,0,0,0,0.00,0.00,0.00,0.00
2014-11-01 06:40:00,2,50000,0,0.00,2,2,0,2,50000,50000,0,50000,0,0,0,0,0.00,0.00,0.00,0.00
2014-11-01 06:50:00,2,49844,0,0.00,2,2,0,2,49215,50000,312,50000,0,0,0,0,0.00,0.00,0.00,0.00
2014-11-01 07:00:00,2,50000,0,0.00,2,2,0,2,50000,50000,0,50000,0,0,0,0,0.00,0.00,0.00,0.00
2014-11-01 07:10:00,2,50000,0,0.00,2,2,0,2,50000,50000,0,50000,0,0,0,0,0.00,0.00,0.00,0.00
2014-11-01 07:20:00,2,50000,0,0.00,2,2,0,2,50000,50000,0,50000,0,0,0,0,0.00,0.00,0.00,0.00
2014-11-01 07:30:00,2,50000,0,0.00,2,2,0,2,50000,50000,0,50000,0,0,0,0,0.00,0.00,0.00,0.00
2014-11-01 07:40:00,2,44111,0,0.00,2,2,0,2,32195,50000,6605,46830,0,0,0,0,0.00,0.00,0.00,0.00
2014-11-01 07:50:00,2,47717,0,0.00,2,2,0,2,37113,50000,4025,50000,0,0,0,0,0.00,0.00,0.00,0.00
2014-11-01 08:00:00,2,49538,0,0.00,2,2,0,2,45376,50000,1387,50000,0,0,0,0,0.00,0.00,0.00,0.00
2014-11-01 08:10:00,2,50000,0,0.00,2,2,0,2,50000,50000,0,50000,0,0,0,0,0.00,0.00,0.00,0.00
2014-11-01 08:20:00,2,50000,0,0.00,2,2,0,2,50000,50000,0,50000,0,0,0,0,0.00,0.00,0.00,0.00
2014-11-01 08:30:00,2,50000,0,0.00,2,2,0,2,50000,50000,0,50000,0,0,0,0,0.00,0.00,0.00,0.00
2014-11-01 08:40:00,2,50000,0,0.00,2,2,0,2,50000,50000,0,50000,0,0,0,0,0.00,0.00,0.00,0.00
2014-11-01 08:50:00,2,50000,0,0.00,2,2,0,2,50000,50000,0,50000,0,0,0,0,0.00,0.00,0.00,0.00
2014-11-01 09:00:00,2,50000,0,0.00,2,2,0,2,50000,50000,0,50000,0,0,0,0,0.00,0.00,0.00,0.00
2014-11-01 09:10:00,2,50000,0,0.00,2,2,0,2,50000,50000,0,50000,0,0,0,0,0.00,0.00,0.00,0.00
2014-11-01 09:20:00,2,50000,0,0.00,2,2,0,2,50000,50000,0,50000,0,0,0,0,0.00,0.00,0.00,0.00
2014-11-01 09:30:00,2,50000,0,0.00,2,2,0,2,50000,50000,0,50000,0,0,0,0,0.00,0.00,0.00,0.00
2014-11-01 09:40:00,2,50000,0,0.00,2,2,0,2,50000,50000,0,50000,0,0,0,0,0.00,0.00,0.00,0.00
2014-11-01 09:50:00,2,50000,0,0.00,2,2,0,2,50000,50000,0,50000,0,0,0,0,0.00,0.00,0.00,0.00
2014-11-01 10:00:00,2,50000,0,0.00,2,2,0,2,50000,50000,0,50000,0,0,0,0,0.00,0.00,0.00,0.00
2014-11-01 10:10:00,2,50000,0,0.00,2,2,0,2,50000,50000,0,50000,0,0,0,0,0.00,0.00,0.00,0.00
2014-11-01 10:20:00,2,50000,0,0.00,2,2,0,2,50000,50000,0,50000,0,0,0,0,0.00,0.00,0.00,0.00
2014-11-01 10:30:00,2,42857,0,0.00,1,2,0,2,0,50000,17496,50000,0,0,0,0,0.00,0.00,0.00,0.00
2014-11-01 10:40:00,1,,,,1,1,0,1,,,,,,,,,,,,
2014-11-01 10:50:00,1,0,,0.00,1,2,0,1,0,0,0,0,,,,,0.00,0.00,0.00,0.00
2014-11-01 11:00:00,1,25000,,0.00,1,2,0,1,0,50000,25000,25000,,,,,0.00,0.00,0.00,0.00
2014-11-01 11:10:00,2,50000,0,0.00,2,2,0,2,50000,50000,0,50000,0,0,0,0,0.00,0.00,0.00,0.00
2014-11-01 11:20:00,2,50000,0,0.00,2,2,0,2,50000,50000,0,50000,0,0,0,0,0.00,0.00,0.00,0.00
2014-11-01 11:30:00,1,33333,0,0.00,1,2,0,1,0,50000,23570,50000,0,0,0,0,0.00,0.00,0.00,0.00
2014-11-01 11:40:00,1,,,,1,1,0,1,,,,,,,,,,,,
2014-11-01 11:50:00,2,43750,0,0.00,1,2,0,2,0,50000,16536,50000,0,0,0,0,0.00,0.00,0.00,0.00
2014-11-01 12:00:00,2,50000,0,0.00,2,2,0,2,50000,50000,0,50000,0,0,0,0,0.00,0.00,0.00,0.00
2014-11-01 12:10:00,2,50000,0,0.00,2,2,0,2,50000,50000,0,50000,0,0,0,0,0.00,0.00,0.00,0.00
2014-11-01 12:20:00,2,50000,0,0.00,1,2,0,2,50000,50000,0,50000,0,0,0,0,0.00,0.00,0.00,0.00
2014-11-01 12:30:00,2,37500,,0.00,1,2,0,2,0,50000,21651,50000,,,,,0.00,0.00,0.00,0.00
2014-11-01 12:40:00,2,50000,0,0.00,2,2,0,2,50000,50000,0,50000,0,0,0,0,0.00,0.00,0.00,0.00
2014-11-01 12:50:00,2,49931,0,0.00,2,2,0,2,49306,50000,208,50000,0,0,0,0,0.00,0.00,0.00,0.00
2014-11-01 13:00:00,2,50000,0,0.00,2,2,0,2,50000,50000,0,50000,0,0,0,0,0.00,0.00,0.00,0.00
2014-11-01 13:10:00,1,50000,0,0.00,1,2,0,1,50000,50000,0,50000,0,0,0,0,0.00,0.00,0.00,0.00
2014-11-01 13:20:00,1,0,,0.00,1,2,0,1,0,0,0,0,,,,,0.00,0.00,0.00,0.00
2014-11-01 13:30:00,1,,,,1,1,0,1,,,,,,,,,,,,
2014-11-01 13:40:00,1,25000,,0.00,1,2,0,1,0,50000,25000,25000,,,,,0.00,0.00,0.00,0.00
2014-11-01 13:50:00,1,0,,0.00,1,2,0,1,0,0,0,0,,,,,0.00,0.00,0.00,0.00
2014-11-01 14:00:00,2,50000,0,0.00,1,2,0,2,50000,50000,0,50000,0,0,0,0,0.00,0.00,0.00,0.00
2014-11-01 14:10:00,2,50000,0,0.00,2,2,0,2,50000,50000,0,50000,0,0,0,0,0.00,0.00,0.00,0.00
2014-11-01 14:20:00,2,49980,0,0.00,2,2,0,2,49797,50000,61,50000,0,0,0,0,0.00,0.00,0.00,0.00
2014-11-01 14:30:00,2,50000,0,0.00,2,2,0,2,50000,50000,0,50000,0,0,0,0,0.00,0.00,0.00,0.00
2014-11-01 14:40:00,2,50000,0,0.00,2,2,0,2,50000,50000,0,50000,0,0,0,0,0.00,0.00,0.00,0.00
2014-11-01 14:50:00,2,50000,0,0.00,2,2,0,2,50000,50000,0,50000,0,0,0,0,0.00,0.00,0.00,0.00
2014-11-01 15:00:00,2,50000,0,0.00,2,2,0,2,50000,50000,0,50000,0,0,0,0,0.00,0.00,0.00,0.00
2014-11-01 15:10:00,2,50000,0,0.00,2,2,0,2,50000,50000,0,50000,0,0,0,0,0.00,0.00,0.00,0.00
2014-11-01 15:20:00,2,49970,0,0.00,2,2,0,2,49704,50000,89,50000,0,0,0,0,0.00,0.00,0.00,0.00
2014-11-01 15:30:00,2,50000,0,0.00,2,2,0,2,50000,50000,0,50000,0,0,0,0,0.00,0.00,0.00,0.00
2014-11-01 15:40:00,2,50000,0,0.00,2,2,0,2,50000,50000,0,50000,0,0,0,0,0.00,0.00,0.00,0.00
2014-11-01 15:50:00,2,50000,0,0.00,2,2,0,2,50000,50000,0,50000,0,0,0,0,0.00,0.00,0.00,0.00
2014-11-01 16:00:00,2,50000,0,0.00,2,2,0,2,50000,50000,0,50000,0,0,0,0,0.00,0.00,0.00,0.00
2014-11-01 16:10:00,2,50000,0,0.00,2,2,0,2,50000,50000,0,50000,0,0,0,0,0.00,0.00,0.00,0.00
2014-11-01 16:20:00,2,49990,0,0.00,2,2,0,2,49901,50000,30,50000,0,0,0,0,0.00,0.00,0.00,0.00
2014-11-01 16:30:00,2,49890,0,0.00,2,2,0,2,48900,50000,330,50000,0,0,0,0,0.00,0.00,0.00,0.00
2014-11-01 16:40:00,2,50000,0,0.00,2,2,0,2,50000,50000,0,50000,0,0,0,0,0.00,0.00,0.00,0.00
2014-11-01 16:50:00,2,50000,0,0.00,2,2,0,2,50000,50000,0,50000,0,0,0,0,0.00,0.00,0.00,0.00
2014-11-01 17:00:00,2,50000,0,0.00,2,2,0,2,50000,50000,0,50000,0,0,0,0,0.00,0.00,0.00,0.00
2014-11-01 17:10:00,2,50000,0,0.00,2,2,0,2,50000,50000,0,50000,0,0,0,0,0.00,0.00,0.00,0.00
2014-11-01 17:20:00,2,50000,0,0.00,2,2,0,2,50000,50000,0,50000,0,0,0,0,0.00,0.00,0.00,0.00
2014-11-01 17:30:00,2,50000,0,0.00,2,2,0,2,50000,50000,0,50000,0,0,0,0,0.00,0.00,0.00,0.00
2014-11-01 17:40:00,2,50000,0,0.00,2,2,0,2,50000,50000,0,50000,0,0,0,0,0.00,0.00,0.00,0.00
2014-11-01 17:50:00,2,50000,0,0.00,2,2,0,2,50000,50000,0,50000,0,0,0,0,0.00,0.00,0.00,0.00
2014-11-01 18:00:00,2,50000,0,0.00,2,2,0,2,50000,50000,0,50000,0,0,0,0,0.00,0.00,0.00,0.00
2014-11-01 18:10:00,2,50000,0,0.00,2,2,0,2,50000,50000,0,50000,0,0,0,0,0.00,0.00,0.00,0.00
2014-11-01 18:20:00,2,50000,0,0.00,2,2,0,2,50000,50000,0,50000,0,0,0,0,0.00,0.00,0.00,0.00
2014-11-01 18:30:00,2,50000,0,0.00,2,2,0,2,50000,50000,0,50000,0,0,0,0,0.00,0.00,0.00,0.00
2014-11-01 18:40:00,2,50000,0,0.00,2,2,0,2,50000,50000,0,50000,0,0,0,0,0.00,0.00,0.00,0.00
2014-11-01 18:50:00,2,50000,0,0.00,2,2,0,2,50000,50000,0,50000,0,0,0,0,0.00,0.00,0.00,0.00
2014-11-01 19:00:00,2,50000,0,0.00,2,2,0,2,50000,50000,0,50000,0,0,0,0,0.00,0.00,0.00,0.00
2014-11-01 19:10:00,2,50000,0,0.00,2,2,0,2,50000,50000,0,50000,0,0,0,0,0.00,0.00,0.00,0.00
2014-11-01 19:20:00,2,50000,0,0.00,2,2,0,2,50000,50000,0,50000,0,0,0,0,0.00,0.00,0.00,0.00
2014-11-01 19:30:00,2,50000,0,0.00,2,2,0,2,50000,50000,0,50000,0,0,0,0,0.00,0.00,0.00,0.00
2014-11-01 19:40:00,2,50000,0,0.00,2,2,0,2,50000,50000,0,50000,0,0,0,0,0.00,0.00,0.00,0.00
2014-11-01 19:50:00,2,50000,0,0.00,2,2,0,2,50000,50000,0,50000,0,0,0,0,0.00,0.00,0.00,0.00
2014-11-01 20:00:00,2,50000,0,0.00,2,2,0,2,50000,50000,0,50000,0,0,0,0,0.00,0.00,0.00,0.00
2014-11-01 20:10:00,2,49934,0,0.00,2,2,0,2,49343,50000,197,50000,0,0,0,0,0.00,0.00,0.00,0.00
2014-11-01 20:20:00,2,50000,0,0.00,2,2,0,2,50000,50000,0,50000,0,0,0,0,0.00,0.00,0.00,0.00
2014-11-01 20:30:00,2,50000,0,0.00,2,2,0,2,50000,50000,0,50000,0,0,0,0,0.00,0.00,0.00,0.00
2014-11-01 20:40:00,2,50000,0,0.00,2,2,0,2,50000,50000,0,50000,0,0,0,0,0.00,0.00,0.00,0.00
2014-11-01 20:50:00,2,50000,0,0.00,2,2,0,2,50000,50000,0,50000,0,0,0,0,0.00,0.00,0.00,0.00
2014-11-01 21:00:00,2,49954,0,0.00,2,2,0,2,49537,50000,139,50000,0,0,0,0,0.00,0.00,0.00,0.00
2014-11-01 21:10:00,2,50000,0,0.00,2,2,0,2,50000,50000,0,50000,0,0,0,0,0.00,0.00,0.00,0.00
2014-11-01 21:20:00,2,50000,0,0.00,2,2,0,2,50000,50000,0,50000,0,0,0,0,0.00,0.00,0.00,0.00
2014-11-01 21:30:00,2,50000,0,0.00,2,2,0,2,50000,50000,0,50000,0,0,0,0,0.00,0.00,0.00,0.00
2014-11-01 21:40:00,2,50000,0,0.00,2,2,0,2,50000,50000,0,50000,0,0,0,0,0.00,0.00,0.00,0.00
2014-11-01 21:50:00,2,50000,0,0.00,2,2,0,2,50000,50000,0,50000,0,0,0,0,0.00,0.00,0.00,0.00
2014-11-01 22:00:00,2,50000,0,0.00,2,2,0,2,50000,50000,0,50000,0,0,0,0,0.00,0.00,0.00,0.00
2014-11-01 22:10:00,2,50000,0,0.00,2,2,0,2,50000,50000,0,50000,0,0,0,0,0.00,0.00,0.00,0.00
2014-11-01 22:20:00,2,50000,0,0.00,2,2,0,2,50000,50000,0,50000,0,0,0,0,0.00,0.00,0.00,0.00
2014-11-01 22:30:00,2,50000,0,0.00,2,2,0,2,50000,50000,0,50000,0,0,0,0,0.00,0.00,0.00,0.00
2014-11-01 22:40:00,2,49938,0,0.00,2,2,0,2,49376,50000,187,50000,0,0,0,0,0.00,0.00,0.00,0.00
2014-11-01 22:50:00,2,50000,0,0.00,2,2,0,2,50000,50000,0,50000,0,0,0,0,0.00,0.00,0.00,0.00
2014-11-01 23:00:00,2,50000,0,0.00,2,2,0,2,50000,50000,0,50000,0,0,0,0,0.00,0.00,0.00,0.00
2014-11-01 23:10:00,2,50000,0,0.00,2,2,0,2,50000,50000,0,50000,0,0,0,0,0.00,0.00,0.00,0.00
2014-11-01 23:20:00,2,50000,0,0.00,2,2,0,2,50000,50000,0,50000,0,0,0,0,0.00,0.00,0.00,0.00
2014-11-01 23:30:00,2,50000,0,0.00,2,2,0,2,50000,50000,0,50000,0,0,0,0,0.00,0.00,0.00,0.00
2014-11-01 23:40:00,2,50000,0,0.00,2,2,0,2,50000,50000,0,50000,0,0,0,0,0.00,0.00,0.00,0.00
2014-11-01 23:50:00,2,49925,0,0.00,2,2,0,2,49251,50000,225,50000,0,0,0,0,0.00,0.00,0.00,0.00
